Погода в Конево

Россия / Новосибирская область     54°14′04″N   79°00′05″E
темп.,
°C
ветер,
м/с
пор.,
м/с
влажн.,
%
обл.,
%
осадки,
мм/ч
давл.,
гПа
погр.,
м
10 мая, пн
пн1001:00+10всв71445100 0.0 1019689
04:00+8всв71448100 0.0 1019662
07:00+7в71455100 0.0 1021724
10:00+11всв8124899 0.0 10201086
13:00+15всв8103570 0.0 10201696
16:00+17св8103113 0.0 10191959
19:00+16св7936100 0.0 10181939
22:00+12ссв5114897 0.0 1019302
11 мая, вт
вт1101:00+9ссв612590 0.0 1020360
04:00+7ссв510700 0.0 1019258
07:00+7с5117433 0.0 1020365
10:00+10ссв61062100 0.0 1020637
13:00+15ссв674771 0.3 10201672
16:00+15св674496 0.3 10201488
19:00+15св884699 0.3 10211890
22:00+11с485934 0.0 1022164
12 мая, ср
ср1201:00+9с410655 0.0 1023194
04:00+8с48765 0.0 1023139
07:00+8с48764 0.0 1023202
10:00+14с565128 0.0 1023849
13:00+17ссз5534100 0.0 10221831
16:00+17сз443192 0.0 10211925
19:00+17зсз4431100 0.0 10201748
22:00+14з3340100 0.0 102040
13 мая, чт
чт1301:00+12з5970100 0.0 1019270
04:00+11ю3681100 0.6 1019247
07:00+11ю2489100 1.8 1018232
10:00+10юв3489100 1.8 1019271
13:00+11юв3579100 2.1 1020508
16:00+14ююв33625 0.0 1020830
19:00+16сз235140 0.0 10191317
22:00+12сз22655 0.0 102016
14 мая, пт
пт1401:00+10зсз3355100 0.0 102023
04:00+9зсз3351100 0.0 102040
07:00+10з3656100 0.0 1021126
10:00+13ссз3559100 0.0 1021321
13:00+17с5560100 0.1 10221374
16:00+17ссз5645100 0.0 10221504
19:00+17ссз353975 0.0 10221315
22:00+12зсз22495 0.0 102212